Find BRO-18

NORAD ID: 64550 Int'l Des: 2025-135 Owner: UNSEEN Country: F operational
LEOCIRCULARRETROGRADESSO

現在のビュー

3D地球を読み込み中...

About BRO-18

BRO-18 (NORAD 64550) is a satellite launched Jun 23, 2025 by UNSEEN of F. It operates in LEO, CIRCULAR, RETROGRADE, SSO orbit with a mass of 15.00 kg.

次回通過

Passes for default location (London). Set your location on the main map for personalized predictions.

高度履歴

Loading altitude history...

軌道要素

1 64550U 25135Y 26194.87682691 .00002394 00000-0 10744-3 0 9992
2 64550 97.4655 309.7042 0002435 117.2280 242.9205 15.22166609 58935
Epoch: Jul 13, 2026 • Age: 7 hours

現在のステータス

高度 508.7 km
遠地点 / 近地点 N/A
速度 7.62 km/s
衛星直下点 64.35°N, 155.85°E
打ち上げ日 Jun 23, 2025
運用期間 1 year
タイプ other

技術仕様

分類 Payload
質量 15.00 kg
乾燥質量 15.00 kg
総質量 15.00 kg
長さ 0.40 m
直径 0.20 m
スパン 0.40 m
形状 Box
製造者 GOMSP
バスタイプ Cubesat 8U
フェーズステータス In Orbit
所有者/国 UNSEEN/F

Most Searched